Location: *
(2.5500°S, 65.9667°W)
Time: 04:10:23
(UTC+00:00)

Vanguard 3 - Visible Passes

Search period start: 22 April 2024 00:00
Search period end: 02 May 2024 00:00
Orbit: 510 x 3235 km, 33.3° (Epoch: 21 April)

Date Brightness Start Highest point End Pass type
(mag) Time Alt. Az. Time Alt. Az. Time Alt. Az.
22 Apr 10.7 02:07:04 10° SW 02:12:32 26° SSW 02:12:32 26° SSW visible
22 Apr 11.2 04:56:36 15° NE 04:56:36 15° NE 04:58:06 10° NE visible
22 Apr 10.5 07:00:48 28° NNW 07:00:48 28° NNW 07:09:14 10° NNE visible
22 Apr 10.7 22:39:42 10° S 22:44:24 13° SSE 22:49:57 10° SE visible
23 Apr 10.3 00:49:16 10° SSW 00:59:18 33° SSE 00:59:18 33° SSE visible
23 Apr 11.1 03:01:35 10° SW 03:03:33 16° SW 03:03:33 16° SW visible
23 Apr 10.7 05:47:01 26° NNE 05:47:01 26° NNE 05:52:12 10° NNE visible
23 Apr 10.8 07:51:13 16° NW 07:53:34 16° NNW 08:01:09 10° N visible
23 Apr 10.5 23:32:24 10° SSW 23:41:35 21° SSE 23:46:07 19° SE visible
24 Apr 10.4 01:43:06 10° SW 01:50:23 35° SSW 01:50:23 35° SSW visible
24 Apr 11.3 04:33:08 12° NE 04:33:08 12° NE 04:33:58 10° NE visible
24 Apr 10.7 06:37:19 26° NNW 06:37:19 26° NNW 06:45:26 10° NNE visible
25 Apr 10.1 00:25:36 10° SSW 00:37:18 35° SSE 00:37:18 35° SSE visible
25 Apr 10.8 02:37:27 10° SW 02:41:35 24° SW 02:41:35 24° SW visible
25 Apr 10.9 05:23:20 23° NNE 05:23:20 23° NNE 05:28:06 10° NNE visible
25 Apr 11.0 07:27:31 16° NW 07:29:36 16° NNW 07:37:36 10° N visible
25 Apr 10.3 23:09:06 10° SSW 23:17:36 21° SSE 23:24:20 16° ESE visible
26 Apr 10.0 01:19:12 10° SW 01:28:36 46° S 01:28:36 46° S visible
26 Apr 11.3 03:32:45 10° WSW 04:09:15 11° NE 04:09:34 10° NE visible
26 Apr 10.8 06:13:26 25° N 06:13:26 25° N 06:21:28 10° NNE visible
27 Apr 10.0 00:01:57 10° SSW 00:13:33 37° SE 00:15:46 35° SE visible
27 Apr 10.4 02:13:27 10° SW 02:20:03 36° SW 02:20:03 36° SW visible
27 Apr 11.0 04:59:14 22° NNE 04:59:14 22° NNE 05:03:46 10° NNE visible
27 Apr 11.1 07:03:24 16° NW 07:05:33 16° NNW 07:13:56 10° N visible
27 Apr 10.2 22:45:47 10° SSW 22:53:37 21° SSE 23:03:03 12° ESE visible
28 Apr 9.6 00:55:24 10° SW 01:07:22 58° SSE 01:07:22 58° SSE visible
28 Apr 11.0 03:08:40 10° WSW 03:44:56 10° NE 03:11:40 19° WSW visible
28 Apr 10.9 05:49:05 24° N 05:49:05 24° N 05:57:17 10° NNE visible
28 Apr 9.8 23:38:22 10° SSW 23:49:07 38° SE 23:54:51 31° ESE visible
29 Apr 9.9 01:49:32 10° SW 01:59:11 55° SW 01:59:11 55° SW visible
29 Apr 11.1 04:34:38 21° NNE 04:34:38 21° NNE 04:39:12 10° NNE visible
29 Apr 11.2 06:38:46 15° NNW 06:41:26 16° NNW 06:50:10 10° N visible
29 Apr 10.1 22:22:27 10° S 22:29:38 21° SE 22:39:33 10° ESE visible
30 Apr 9.5 00:31:40 10° SW 00:44:17 64° SE 00:46:55 59° ESE visible
30 Apr 10.6 02:44:43 10° WSW 03:20:02 10° NE 03:20:02 10° NE visible
30 Apr 11.0 05:24:09 23° N 05:24:09 23° N 05:32:55 10° NNE visible
30 Apr 9.7 23:14:49 10° SSW 23:24:42 39° SE 23:34:55 20° E visible
01 May 9.6 01:25:44 10° WSW 01:39:19 83° WNW 01:39:19 83° WNW visible
01 May 11.2 03:41:30 10° W 04:09:19 21° NNE 04:14:25 10° NNE visible
01 May 11.3 06:13:25 15° NNW 06:17:15 16° NNW 06:26:14 10° NNE visible
